Change the Weather History Date:

Thursday, July 25, 2013

  Actual Average Record
Temperature  
Mean Temperature 80 °F -  
Max Temperature 84 °F 84 °F 89 °F (1996)
Min Temperature 77 °F 77 °F 75 °F (1997)
Cooling Degree Days 16    
Growing Degree Days 30 (Base 50)    
Moisture  
Dew Point 77 °F    
Average Humidity 87    
Maximum Humidity 94    
Minimum Humidity 73    
Precipitation  
Precipitation 0.28 in - - ()
Sea Level Pressure  
Sea Level Pressure 29.57 in    
Wind  
Wind Speed 9 mph ()    
Max Wind Speed 22 mph    
Max Gust Speed 33 mph    
Visibility 1.5 miles    
Events Rain    
Averages and records for this station are not official NWS values.
T = Trace of Precipitation, MM = Missing Value Source: Averaged Metar Reports

Daily Weather History Graph

Daily Weather History Graph

Search for Another Location

Airport or City:

Trip Planner

Search our weather history database for the weather conditions in past years. The results will help you decide how hot, cold, wet, or windy it might be!

Date:

Astronomy

Jul. 25, 2013 Rise Set
Actual Time 6:12 AM IST 7:17 PM IST
Civil Twilight 5:49 AM IST 7:40 PM IST
Nautical Twilight 5:21 AM IST 8:08 PM IST
Astronomical Twilight 4:52 AM IST 8:37 PM IST
Moon 9:18 PM IST (7/25) 8:39 AM IST (7/25)
Length of Visible Light 13h 51m
Length of Day
13h 04m
Waning Gibbous, 91% of the Moon is Illuminated
Jul 25
Waning Gibbous
Jul 29
Last Quarter
Aug 7
New
Aug 14
First Quarter
Aug 21
Full

Hourly Weather History & Observations

Time (IST) Temp. Heat Index Dew Point Humidity Pressure Visibility Wind Dir Wind Speed Gust Speed Precip Events Conditions
12:10 AM 78.8 °F - 77.0 °F 94% 29.59 in 1.6 mi WSW 8.1 mph 19.6 mph N/A   Haze
12:40 AM 78.8 °F - 75.2 °F 89% 29.59 in 1.6 mi SW 11.5 mph 23.0 mph N/A   Haze
1:10 AM 78.8 °F - 77.0 °F 94% 29.59 in 1.6 mi SW 8.1 mph 19.6 mph N/A Rain Light Rain
1:40 AM 77.0 °F - 75.2 °F 94% 29.59 in 1.6 mi SW 8.1 mph 19.6 mph N/A Rain Light Rain
2:10 AM 78.8 °F - 77.0 °F 94% 29.56 in 1.6 mi SW 12.7 mph 24.2 mph N/A   Drizzle
2:30 AM 78 °F - 76 °F 93% 29.57 in 1 mi SW 4.6 mph - - Rain Light Rain
2:40 AM 78.8 °F - 77.0 °F 94% 29.56 in 1.6 mi WSW 8.1 mph 19.6 mph N/A   Haze
3:10 AM 80.6 °F 87.1 °F 77.0 °F 89% 29.56 in 1.6 mi SW 9.2 mph 20.7 mph N/A   Haze
3:40 AM 80.6 °F 87.1 °F 77.0 °F 89% 29.56 in 1.6 mi WSW 9.2 mph 20.7 mph N/A   Haze
4:10 AM 80.6 °F 87.1 °F 77.0 °F 89% 29.56 in 1.6 mi WSW 8.1 mph 19.6 mph N/A   Haze
4:40 AM 80.6 °F 87.1 °F 77.0 °F 89% 29.56 in 1.6 mi WSW 9.2 mph 20.7 mph N/A   Haze
5:10 AM 80.6 °F 87.1 °F 77.0 °F 89% 29.56 in 1.3 mi WSW 11.5 mph - N/A Rain Light Rain
5:30 AM 79 °F - 77 °F 90% 29.57 in 1 mi West 6.9 mph - - Rain Light Rain
5:40 AM 80.6 °F 87.1 °F 77.0 °F 89% 29.56 in 1.6 mi WSW 9.2 mph 20.7 mph N/A   Haze
6:10 AM 80.6 °F 87.1 °F 77.0 °F 89% 29.56 in 1.6 mi WSW 8.1 mph 19.6 mph N/A   Haze
6:40 AM 80.6 °F 87.1 °F 77.0 °F 89% 29.56 in 1.6 mi WSW 8.1 mph 19.6 mph N/A   Haze
7:40 AM 80.6 °F 87.1 °F 77.0 °F 89% 29.59 in 1.9 mi WSW 8.1 mph 19.6 mph N/A   Haze
8:10 AM 82.4 °F 90.9 °F 77.0 °F 84% 29.59 in 1.9 mi WSW 8.1 mph 19.6 mph N/A   Haze
9:10 AM 80.6 °F 87.1 °F 77.0 °F 89% 29.62 in 1.3 mi WSW 10.4 mph 21.9 mph N/A   Light Drizzle
9:40 AM 82.4 °F 90.9 °F 77.0 °F 84% 29.62 in 1.6 mi WSW 9.2 mph 20.7 mph N/A   Overcast
10:10 AM 82.4 °F 90.9 °F 77.0 °F 84% 29.62 in 1.6 mi SW 11.5 mph 23.0 mph N/A   Overcast
10:40 AM 82.4 °F 90.9 °F 77.0 °F 84% 29.62 in 1.6 mi SW 13.8 mph 27.6 mph N/A   Overcast
11:10 AM 82.4 °F 90.9 °F 77.0 °F 84% 29.59 in 1.4 mi WSW 8.1 mph 19.6 mph N/A   Overcast
11:30 AM 82 °F - 77 °F 82% 29.62 in 1 mi West 9.2 mph - -   Haze
11:40 AM 82.4 °F 90.9 °F 77.0 °F 84% 29.59 in 1.6 mi WSW 10.4 mph 21.9 mph N/A   Haze
12:10 PM 80.6 °F 87.1 °F 77.0 °F 89% 29.59 in 1.3 mi SW 16.1 mph 27.6 mph N/A   Overcast
1:10 PM 84.2 °F 94.1 °F 77.0 °F 79% 29.59 in 2.2 mi WSW 13.8 mph 25.3 mph N/A   Haze
1:40 PM 84.2 °F 94.1 °F 77.0 °F 79% 29.59 in 2.2 mi WSW 13.8 mph 25.3 mph N/A   Haze
2:10 PM 82.4 °F 90.9 °F 77.0 °F 84% 29.56 in - WSW 15.0 mph 26.5 mph N/A   Overcast
2:30 PM 83 °F - 79 °F 85% 29.58 in 1 mi West 9.2 mph - - Rain Light Rain
3:40 PM 78.8 °F - 75.2 °F 89% 29.56 in 1.2 mi WSW 21.9 mph 33.4 mph N/A Rain Light Rain
4:10 PM 78.8 °F - 75.2 °F 89% 29.56 in 1.6 mi WSW 11.5 mph 23.0 mph N/A   Haze
5:10 PM 80.6 °F 87.1 °F 77.0 °F 89% 29.53 in 1.9 mi WSW 12.7 mph - N/A   Haze
5:30 PM 81 °F - 74 °F 73% 29.56 in 1 mi West 9.2 mph - - Rain Light Drizzle
5:40 PM 80.6 °F 87.1 °F 77.0 °F 89% 29.53 in 1.9 mi WSW 9.2 mph 20.7 mph N/A   Haze
6:10 PM 80.6 °F 87.1 °F 77.0 °F 89% 29.53 in 1.6 mi SW 10.4 mph 21.9 mph N/A   Mostly Cloudy
6:40 PM 80.6 °F 87.1 °F 77.0 °F 89% 29.53 in 1.6 mi WSW 15.0 mph 26.5 mph N/A   Overcast
7:10 PM 80.6 °F 86.2 °F 75.2 °F 84% 29.56 in 1.6 mi WSW 9.2 mph 20.7 mph N/A   Haze
7:40 PM 80.6 °F 86.2 °F 75.2 °F 84% 29.56 in 1.6 mi WSW 17.3 mph 28.8 mph N/A   Haze
8:30 PM 81 °F - 76 °F 82% 29.58 in 1 mi SW 9.2 mph - - Rain Light Drizzle
8:40 PM 80.6 °F 86.2 °F 75.2 °F 84% 29.56 in 2.2 mi WSW 11.5 mph 23.0 mph N/A   Haze
10:10 PM 80.6 °F 87.1 °F 77.0 °F 89% 29.59 in 1.3 mi WSW 15.0 mph - N/A Rain Light Rain
10:40 PM 80.6 °F 87.1 °F 77.0 °F 89% 29.59 in 0.9 mi SW 9.2 mph 20.7 mph N/A Rain Rain
11:10 PM 80.6 °F 87.1 °F 77.0 °F 89% 29.59 in 1.3 mi SW 12.7 mph - N/A   Light Drizzle
11:30 PM 81 °F - 76 °F 82% 29.59 in 1 mi SW 6.9 mph - - Rain Light Drizzle
11:40 PM 80.6 °F 87.1 °F 77.0 °F 89% 29.56 in 1.6 mi SW 8.1 mph 19.6 mph N/A   Overcast